Rbgn^[z[y[W
メイン
   新天体発見情報
     Comet C/2022 JK5 (PANSTARRS)
投稿するにはまず登録を

スレッド表示 | 新しいものから 前のトピック | 次のトピック | 下へ
投稿者 スレッド
佐藤裕久
投稿日時: 2023-5-2 12:16
モデレータ
登録日: 2005-6-12
居住地: 日本
投稿: 2548
オンライン
Comet C/2022 JK5 (PANSTARRS)

2022年5月、HaleakalaにあるPan-STARRS2の1.8-m Ritchey-Chretien 反射望遠鏡で得た
画像から小惑星状天体が発見された。
P. Veres, L. Denneauと A. Fitzsimmonsの報告によると、2023年4月3日UT、チリ 
Rio Hurtadoにある小惑星地球衝突最終警報システム Asteroid Terrestrial-impact 
Last Alert System (ATLAS)調査プログラムのコースに0.5-m f/2 Schmidt反射望遠鏡で
得たCCD画像から新彗星と考えられた。
Fitzsimmonsによると、集光した12"のコマとp.a.260°にまっすぐな尾があった。
この彗星は、近日点に近づくにつれてかなり明るくなっている(17.6-18.2等)。
佐藤英貴氏(東京都文京区)によって2022 JK5と同定される前、小惑星センターのPCCP 
webpageに公表され確認された。

彗星機能は次のとおり、

OC   Date        Reporter           Coma    Tail    PA          Exposures
W84  2022-09-14  S. Deen            1".7      2".5  195
W84  2022-09-16  S. Deen            1".6
X07  2023-04-07  M. Suzuki         15"       12"    200-265      10x60s
W88  2023-04-08  N. Paul            7".7                         18x50s
X07  2023-04-08  M. Suzuki         15"        7"    235          10x60s
Q62  2023-04-09  H. Sato           18"                           24x60s
W79  2023-04-11  A. Hale            7"
W68  2023-04-18  J. Robinson        9"                            4x30s

発見位置は次のとおり、

     2022 UT             R.A. (2000) Decl.       Mag.
     May   9.43358   15 14 16.85   -13 55 23.8   21.0
           9.44579   15 14 16.41   -13 55 23.7   20.8
           9.45803   15 14 15.94   -13 55 23.8   20.9
          23.39482   15 05 34.52   -13 59 24.0   20.9
          23.39545   15 05 34.52   -13 59 23.7   21.2
          23.40629   15 05 34.10   -13 59 24.1   21.1
          23.41781   15 05 33.65   -13 59 24.8   21.1
          23.41844   15 05 33.63   -13 59 24.4   21.2
          23.42931   15 05 33.22   -13 59 24.6   21.1
          23.42994   15 05 33.19   -13 59 24.7   21.1

MPCの楕円軌道要素、位置推算表は次のとおり、

Orbital elements:
    C/2022 JK5 (PANSTARRS)                                                      
Epoch 2023 Feb. 25.0 TT = JDT 2460000.5                                         
T 2023 Apr. 28.80809 TT                                 Rudenko                 
q   2.6869477            (2000.0)            P               Q                  
z  +0.0231751      Peri.  247.15597     +0.56507791     +0.78628862             
 +/-0.0000118      Node    59.65275     -0.61013164     +0.60212815             
e   0.9377296      Incl.   16.83092     -0.55536145     +0.13853481             
From 63 observations 2022 May 9-2023 Apr. 24, mean residual 0".3.               
                                                                                
Ephemeris:
Date    TT    R. A. (2000) Decl.     Delta      r    Elong.  Phase   m1
2023 03 26    21 15 21.4 -28 22 14   3.1876  2.7088    53.1    17.1  17.8
...
2023 04 10    21 45 21.9 -27 20 44   3.0324  2.6937    61.0    19.0  17.7
...
2023 04 18    22 00 42.0 -26 47 13   2.9492  2.6892    65.3    19.8  17.6
...
2023 04 24    22 11 50.6 -26 22 33   2.8867  2.6874    68.6    20.4  17.6
2023 04 25    22 13 40.1 -26 18 31   2.8763  2.6872    69.1    20.5  17.6
2023 04 26    22 15 29.0 -26 14 30   2.8659  2.6871    69.7    20.6  17.6
...
2023 05 02    22 26 10.2 -25 51 06   2.8038  2.6871    73.0    21.0  17.5
...
2023 05 10    22 39 50.0 -25 22 10   2.7218  2.6893    77.4    21.5  17.5
...
2023 05 25    23 03 24.5 -24 38 08   2.5715  2.7001    86.2    22.0  17.4

(MPEC 2023-H180、CBET 5246)

スレッド表示 | 新しいものから 前のトピック | 次のトピック | トップ

投稿するにはまず登録を
 
© 1999 Tsutomu Seki.